Flag for Lithuania Weather past 2 weeks in Kaunas, Lithuania

Now
39 °F

Fog.


Feels Like: 39 °F
Forecast: 39 / 48 °F
Wind: No wind

Location: Kaunas

Current Time: Mar 29, 2015 at 9:23:08 AM

Latest Report: Mar 29, 2015 at 8:50 AM


Visibility: 1 mi

Pressure: 29.80 "Hg

Humidity: 93%

Dew point: 37 °F

Location of KaunasLocation

Historic Weather in Kaunas — Graph

°F

Kaunas temperature yesterday

Maximum temperature yesterday: 52 °F (at 12:20 AM)
Minimum temperature yesterday: 39 °F (at 12:20 PM)
Average temperature yesterday: 42 °F

Past Weeks' High & Low Weather Summary

 TemperatureHumidityPressure
High63 °F (Mar 26, 2:20 PM)93% (Mar 21, 10:20 AM)30.92 "Hg (Mar 21, 10:20 AM)
Low21 °F (Mar 22, 5:20 AM)13% (Mar 18, 3:50 PM)29.77 "Hg (Mar 24, 5:20 AM)
Average40 °F57%30.24 "Hg
* Reported Mar 14 7:20 AM — Mar 29 8:20 AM, Kaunas, Weather by CustomWeather, © 2015

Note: Actual official high and low records may vary slightly from our data, if they occured in-between our weather recording intervals... More about our weather records

Advertising

Kaunas weather history for previous 24 hours

 ConditionsComfort  
Time TempWeatherWind HumidityBarometerVisibility
8:20 AM
Sun, Mar 29
37 °FSleet. Cloudy.2 mph93%29.80 "Hg1 mi
7:50 AM37 °FDrizzle. Fog.1 mph93%29.83 "Hg0 mi
7:20 AM37 °FFog.No wind93%29.83 "Hg0 mi
6:20 AM37 °FFog.No wind93%29.86 "Hg0 mi
5:50 AM37 °FFog.No wind93%29.86 "Hg0 mi
5:20 AM37 °FFog.No wind93%29.86 "Hg0 mi
4:50 AM37 °FFog.No wind93%29.89 "Hg0 mi
4:20 AM37 °FFog.No wind93%29.89 "Hg0 mi
2:50 AM37 °FFog.2 mph93%29.89 "Hg0 mi
2:20 AM37 °FFog.2 mph93%29.89 "Hg0 mi
1:50 AM37 °FFog.No wind93%29.89 "Hg0 mi
1:20 AM37 °FSprinkles. Overcast.2 mph93%29.92 "Hg1 mi
12:50 AM39 °FSprinkles. Overcast.No wind93%29.92 "Hg1 mi
12:20 AM39 °FDrizzle. Fog.No wind93%29.92 "Hg1 mi
11:50 PM
Sat, Mar 28
39 °FLight rain. Fog.No wind93%29.92 "Hg2 mi
11:20 PM39 °FRain. Fog.1 mph93%29.92 "Hg2 mi
10:50 PM39 °FSleet. Fog.No wind93%29.95 "Hg1 mi
10:20 PM39 °FSleet. Fog.No wind93%29.95 "Hg1 mi
9:50 PM39 °FDrizzle. Fog.No wind93%29.95 "Hg1 mi
9:20 PM39 °FRain. Fog.No wind93%29.95 "Hg1 mi
8:50 PM39 °FLight rain. Fog.No wind93%29.95 "Hg2 mi
8:20 PM39 °FLight rain. Mostly cloudy.No wind93%29.98 "Hg6 mi
7:50 PM41 °FLight rain. Mostly cloudy.No wind87%29.98 "Hg6 mi
7:20 PM41 °FLight rain. Overcast.No wind87%29.98 "Hg6 mi
6:50 PM41 °FLight rain. Mostly cloudy.No wind87%29.95 "Hg4 mi
6:20 PM41 °FLight rain. Cloudy.No wind87%29.95 "HgN/A
5:50 PM41 °FLight rain. More clouds than sun.No wind87%29.95 "HgN/A
5:20 PM41 °FLight rain. More clouds than sun.2 mph87%29.95 "HgN/A
4:50 PM41 °FLight rain. More clouds than sun.2 mph81%29.95 "HgN/A
4:20 PM41 °FMore clouds than sun.3 mph81%29.95 "HgN/A
3:50 PM41 °FBroken clouds.2 mph81%29.95 "HgN/A
3:20 PM41 °FMostly cloudy.3 mph81%29.95 "HgN/A
2:50 PM41 °FMostly cloudy.5 mph81%29.95 "HgN/A
2:20 PM39 °FMostly cloudy.5 mph93%29.95 "HgN/A
1:50 PM39 °FLight rain. More clouds than sun.5 mph93%29.98 "Hg4 mi
1:20 PM39 °FLight rain. Mostly cloudy.8 mph93%29.98 "Hg4 mi
12:50 PM41 °FLight rain. Mostly cloudy.7 mph87%29.98 "Hg4 mi
12:20 PM39 °FLight rain. Mostly cloudy.5 mph93%29.95 "Hg5 mi
11:50 AM41 °FLight rain. Fog.5 mph87%29.95 "Hg3 mi
11:20 AM41 °FLight rain. Fog.5 mph87%29.95 "Hg3 mi
10:50 AM41 °FLight rain. Mostly cloudy.5 mph87%29.95 "Hg6 mi
10:20 AM41 °FLight rain. Mostly cloudy.5 mph87%29.95 "Hg4 mi
9:50 AM41 °FLight rain. Low clouds.5 mph87%29.95 "Hg4 mi
9:20 AM41 °FLight rain. Mostly cloudy.6 mph87%29.95 "Hg5 mi
Weather by CustomWeather, © 2015

See weather overviewHow to use our weather pages